FW8731 Weather Reports


Display with metric or nautical units.
time (UTC)temp
F
wind
direction
speed
MPH
gust
MPH
rain 1hr
in
rain 24hr
in
rain mn
in
humidity
%
barometer
mb
20260506230048 83 200 3.0 7.0 0.00 0.00 0.00 41 1016.6
20260506224549 83 186 2.0 11.0 0.00 0.00 0.00 40 1016.7
20260506223050 82 213 3.0 8.0 0.00 0.00 0.00 41 1017.1
20260506221549 82 266 2.0 10.0 0.00 0.00 0.00 40 1017.4
20260506220058 82 238 3.0 7.0 0.00 0.00 0.00 38 1017.4
20260506214546 80 190 3.0 9.0 0.00 0.00 0.00 38 1017.5
20260506213044 80 205 3.0 7.0 0.00 0.00 0.00 39 1017.6
20260506211548 79 221 2.0 8.0 0.00 0.00 0.00 42 1017.9
20260506210100 79 218 3.0 8.0 0.00 0.00 0.00 41 1018.1
20260506204550 78 194 2.0 6.0 0.00 0.00 0.00 42 1018.2
20260506203128 77 250 1.0 9.0 0.00 0.00 0.00 42 1018.4
20260506201547 77 161 1.0 8.0 0.00 0.00 0.00 46 1018.6
20260506200048 75 229 1.0 6.0 0.00 0.00 0.00 50 1018.9
20260506194534 74 187 1.0 8.0 0.00 0.00 0.00 53 1018.9
20260506193043 73 188 3.0 7.0 0.00 0.00 0.00 55 1019.2
20260506191545 72 156 1.0 5.0 0.00 0.00 0.00 57 1019.4
20260506190048 71 333 2.0 6.0 0.00 0.00 0.00 59 1019.7
20260506184551 70 201 2.0 5.0 0.00 0.00 0.00 61 1019.7
20260506183041 69 192 3.0 8.0 0.00 0.00 0.00 62 1019.7
20260506181543 69 165 1.0 5.0 0.00 0.00 0.00 64 1020.0
20260506180045 67 198 1.0 5.0 0.00 0.00 0.00 67 1020.1
20260506174544 66 172 3.0 6.0 0.00 0.00 0.00 68 1020.1
20260506173050 66 186 0.0 3.0 0.00 0.00 0.00 70 1020.3
20260506171544 64 241 1.0 4.0 0.00 0.00 0.00 73 1020.3
20260506170036 62 0 1.0 5.0 0.00 0.00 0.00 77 1020.2
20260506164548 60 198 0.0 3.0 0.00 0.00 0.00 82 1020.2
20260506163057 58 183 0.0 2.0 0.00 0.00 0.00 86 1020.2
20260506161542 56 0 0.0 2.0 0.00 0.00 0.00 89 1020.3
20260506160039 55 89 0.0 2.0 0.00 0.00 0.00 91 1020.5
20260506154544 53 89 0.0 3.0 0.00 0.00 0.00 92 1020.5
20260506153044 52 89 0.0 3.0 0.00 0.00 0.00 94 1020.5
20260506151543 50 0 0.0 1.0 0.00 0.00 0.00 94 1020.7
20260506150043 49 52 0.0 1.0 0.00 0.00 0.00 94 1020.7
20260506144539 48 0 0.0 1.0 0.00 0.00 0.00 94 1020.6
20260506143044 47 0 0.0 2.0 0.00 0.00 0.00 94 1020.4
20260506141545 46 0 0.0 0.0 0.00 0.00 0.00 93 1020.3
20260506140057 46 0 0.0 0.0 0.00 0.00 0.00 93 1019.9
20260506134543 46 0 0.0 0.0 0.00 0.00 0.00 92 1019.8
20260506133037 46 0 0.0 0.0 0.00 0.00 0.00 93 1019.5
20260506131545 46 0 0.0 0.0 0.00 0.00 0.00 92 1019.5
20260506130042 46 0 0.0 0.0 0.00 0.00 0.00 92 1019.3
20260506124545 47 0 0.0 0.0 0.00 0.00 0.00 92 1019.3
20260506123043 47 0 0.0 0.0 0.00 0.00 0.00 92 1019.2
20260506121547 47 0 0.0 0.0 0.00 0.00 0.00 91 1019.2
20260506120044 47 0 0.0 0.0 0.00 0.00 0.00 91 1019.1
20260506114543 48 0 0.0 0.0 0.00 0.00 0.00 91 1019.0
20260506113042 48 0 0.0 0.0 0.00 0.00 0.00 91 1018.8
20260506111543 48 0 0.0 0.0 0.00 0.00 0.00 91 1018.6
20260506110041 49 0 0.0 0.0 0.00 0.00 0.00 90 1018.5
20260506104536 50 0 0.0 0.0 0.00 0.00 0.00 91 1018.4
20260506103044 49 0 0.0 0.0 0.00 0.00 0.00 91 1018.1
20260506101547 49 0 0.0 0.0 0.00 0.00 0.00 90 1018.1
20260506100042 49 0 0.0 0.0 0.00 0.00 0.00 90 1017.9
20260506094540 50 0 0.0 0.0 0.00 0.00 0.00 90 1017.9
20260506093044 50 0 0.0 0.0 0.00 0.00 0.00 89 1017.8
20260506091536 50 0 0.0 0.0 0.00 0.00 0.00 88 1017.6
20260506090035 51 0 0.0 0.0 0.00 0.00 0.00 88 1017.6
20260506084551 51 0 0.0 0.0 0.00 0.00 0.00 87 1017.6
20260506083039 51 0 0.0 0.0 0.00 0.00 0.00 86 1017.6
20260506081541 52 0 0.0 0.0 0.00 0.00 0.00 86 1017.6
20260506073042 54 0 0.0 1.0 0.00 0.00 0.00 82 1017.1
20260506071541 54 0 0.0 0.0 0.00 0.00 0.00 82 1017.0
20260506061548 57 0 0.0 1.0 0.00 0.00 0.00 75 1016.5
20260506050104 61 51 0.0 1.0 0.00 0.00 0.00 66 1015.5
20260506044545 61 0 0.0 2.0 0.00 0.00 0.00 66 1015.3
20260506043043 63 51 0.0 2.0 0.00 0.00 0.00 63 1015.0
20260506041552 63 0 0.0 2.0 0.00 0.00 0.00 62 1014.8
20260506040045 65 56 0.0 2.0 0.00 0.00 0.00 58 1014.6
20260506034550 67 0 0.0 1.0 0.00 0.00 0.00 54 1014.3
20260506033040 69 56 1.0 2.0 0.00 0.00 0.00 50 1014.0
20260506031536 70 56 0.0 2.0 0.00 0.00 0.00 49 1013.9
20260506030043 71 0 0.0 2.0 0.00 0.00 0.00 47 1013.4
20260506024545 72 56 0.0 4.0 0.00 0.00 0.00 44 1013.2
20260506023042 74 0 1.0 3.0 0.00 0.00 0.00 42 1013.0
20260506021538 77 275 0.0 2.0 0.00 0.00 0.00 37 1013.0
20260506020037 80 0 0.0 4.0 0.00 0.00 0.00 35 1012.7
20260506014536 81 337 1.0 3.0 0.00 0.00 0.00 33 1012.4
20260506013051 81 304 0.0 6.0 0.00 0.00 0.00 34 1012.3
20260506011546 82 317 0.0 4.0 0.00 0.00 0.00 31 1012.2
20260506010048 82 5 1.0 4.0 0.00 0.00 0.00 33 1012.1
20260506004543 82 90 2.0 7.0 0.00 0.00 0.00 36 1012.1
20260506003042 82 286 1.0 3.0 0.00 0.00 0.00 37 1012.0
20260506001545 81 212 1.0 5.0 0.00 0.00 0.00 35 1011.9
20260506000038 80 208 3.0 7.0 0.00 0.00 0.00 36 1012.0
20260505234542 79 186 3.0 7.0 0.00 0.00 0.00 38 1012.1
20260505233046 79 177 2.0 7.0 0.00 0.00 0.00 41 1012.2
20260505231545 78 188 4.0 9.0 0.00 0.00 0.00 41 1012.3